Year,Month,Day,Hour,Minute,Value (Times are PST for temperature in C)
2015,06,27,00,00,19.10
2015,06,27,00,01,19.10
2015,06,27,00,02,19.10
2015,06,27,00,03,19.30
2015,06,27,00,04,19.40
2015,06,27,00,05,19.50
2015,06,27,00,06,19.60
2015,06,27,00,07,19.60
2015,06,27,00,08,19.70
2015,06,27,00,09,19.70
2015,06,27,00,10,19.70
2015,06,27,00,11,19.70
2015,06,27,00,12,19.70
2015,06,27,00,13,19.70
2015,06,27,00,14,19.70
2015,06,27,00,15,19.60
2015,06,27,00,16,19.60
2015,06,27,00,17,19.60
2015,06,27,00,18,19.60
2015,06,27,00,19,19.60
2015,06,27,00,20,19.50
2015,06,27,00,21,19.50
2015,06,27,00,22,19.40
2015,06,27,00,23,19.40
2015,06,27,00,24,19.40
2015,06,27,00,25,19.40
2015,06,27,00,26,19.30
2015,06,27,00,27,19.30
2015,06,27,00,28,19.30
2015,06,27,00,29,19.20
2015,06,27,00,30,19.20
2015,06,27,00,31,19.20
2015,06,27,00,32,19.10
2015,06,27,00,33,19.10
2015,06,27,00,34,19.10
2015,06,27,00,35,19.00
2015,06,27,00,36,19.00
2015,06,27,00,37,19.00
2015,06,27,00,38,18.90
2015,06,27,00,39,18.90
2015,06,27,00,40,18.80
2015,06,27,00,41,18.80
2015,06,27,00,42,18.80
2015,06,27,00,43,18.80
2015,06,27,00,44,18.70
2015,06,27,00,45,18.70
2015,06,27,00,46,18.70
2015,06,27,00,47,18.70
2015,06,27,00,48,18.60
2015,06,27,00,49,18.60
2015,06,27,00,50,18.60
2015,06,27,00,51,18.50
2015,06,27,00,52,18.50
2015,06,27,00,53,18.40
2015,06,27,00,54,18.40
2015,06,27,00,55,18.40
2015,06,27,00,56,18.40
2015,06,27,00,57,18.30
2015,06,27,00,58,18.30
2015,06,27,00,59,18.30
2015,06,27,01,00,18.30
2015,06,27,01,01,18.30
2015,06,27,01,02,18.30
2015,06,27,01,03,18.30
2015,06,27,01,04,18.30
2015,06,27,01,05,18.30
2015,06,27,01,06,18.30
2015,06,27,01,07,18.30
2015,06,27,01,08,18.30
2015,06,27,01,09,18.30
2015,06,27,01,10,18.30
2015,06,27,01,11,18.30
2015,06,27,01,12,18.30
2015,06,27,01,13,18.30
2015,06,27,01,14,18.30
2015,06,27,01,15,18.30
2015,06,27,01,16,18.30
2015,06,27,01,17,18.30
2015,06,27,01,18,18.20
2015,06,27,01,19,18.20
2015,06,27,01,20,18.20
2015,06,27,01,21,18.20
2015,06,27,01,22,18.20
2015,06,27,01,23,18.20
2015,06,27,01,24,18.20
2015,06,27,01,25,18.10
2015,06,27,01,26,18.10
2015,06,27,01,27,18.10
2015,06,27,01,28,18.10
2015,06,27,01,29,18.10
2015,06,27,01,30,18.00
2015,06,27,01,31,18.00
2015,06,27,01,32,18.00
2015,06,27,01,33,17.90
2015,06,27,01,34,17.90
2015,06,27,01,35,17.90
2015,06,27,01,36,17.90
2015,06,27,01,37,17.90
2015,06,27,01,38,17.80
2015,06,27,01,39,17.80
2015,06,27,01,40,17.80
2015,06,27,01,41,17.80
2015,06,27,01,42,17.80
2015,06,27,01,43,17.80
2015,06,27,01,44,17.80
2015,06,27,01,45,17.80
2015,06,27,01,46,17.80
2015,06,27,01,47,17.80
2015,06,27,01,48,17.80
2015,06,27,01,49,17.70
2015,06,27,01,50,17.70
2015,06,27,01,51,17.70
2015,06,27,01,52,17.70
2015,06,27,01,53,17.70
2015,06,27,01,54,17.70
2015,06,27,01,55,17.60
2015,06,27,01,56,17.60
2015,06,27,01,57,17.60
2015,06,27,01,58,17.60
2015,06,27,01,59,17.60
2015,06,27,02,00,17.60
2015,06,27,02,01,17.50
2015,06,27,02,02,17.50
2015,06,27,02,03,17.50
2015,06,27,02,04,17.50
2015,06,27,02,05,17.50
2015,06,27,02,06,17.50
2015,06,27,02,07,17.40
2015,06,27,02,08,17.40
2015,06,27,02,09,17.40
2015,06,27,02,10,17.40
2015,06,27,02,11,17.40
2015,06,27,02,12,17.40
2015,06,27,02,13,17.40
2015,06,27,02,14,17.40
2015,06,27,02,15,17.40
2015,06,27,02,16,17.40
2015,06,27,02,17,17.40
2015,06,27,02,18,17.40
2015,06,27,02,19,17.40
2015,06,27,02,20,17.40
2015,06,27,02,21,17.40
2015,06,27,02,22,17.30
2015,06,27,02,23,17.30
2015,06,27,02,24,17.30
2015,06,27,02,25,17.30
2015,06,27,02,26,17.30
2015,06,27,02,27,17.20
2015,06,27,02,28,17.20
2015,06,27,02,29,17.20
2015,06,27,02,30,17.20
2015,06,27,02,31,17.20
2015,06,27,02,32,17.20
2015,06,27,02,33,17.10
2015,06,27,02,34,17.10
2015,06,27,02,35,17.10
2015,06,27,02,36,17.10
2015,06,27,02,37,17.10
2015,06,27,02,38,17.10
2015,06,27,02,39,17.10
2015,06,27,02,40,17.10
2015,06,27,02,41,17.10
2015,06,27,02,42,17.00
2015,06,27,02,43,17.00
2015,06,27,02,44,17.00
2015,06,27,02,45,17.00
2015,06,27,02,46,17.00
2015,06,27,02,47,17.00
2015,06,27,02,48,17.00
2015,06,27,02,49,17.00
2015,06,27,02,50,17.00
2015,06,27,02,51,17.00
2015,06,27,02,52,16.90
2015,06,27,02,53,16.90
2015,06,27,02,54,16.90
2015,06,27,02,55,16.90
2015,06,27,02,56,16.90
2015,06,27,02,57,16.80
2015,06,27,02,58,16.80
2015,06,27,02,59,16.80
2015,06,27,03,00,16.80
2015,06,27,03,01,16.80
2015,06,27,03,02,16.80
2015,06,27,03,03,16.70
2015,06,27,03,04,16.70
2015,06,27,03,05,16.70
2015,06,27,03,06,16.70
2015,06,27,03,07,16.70
2015,06,27,03,08,16.70
2015,06,27,03,09,16.70
2015,06,27,03,10,16.70
2015,06,27,03,11,16.60
2015,06,27,03,12,16.60
2015,06,27,03,13,16.60
2015,06,27,03,14,16.60
2015,06,27,03,15,16.60
2015,06,27,03,16,16.60
2015,06,27,03,17,16.50
2015,06,27,03,18,16.50
2015,06,27,03,19,16.50
2015,06,27,03,20,16.50
2015,06,27,03,21,16.40
2015,06,27,03,22,16.40
2015,06,27,03,23,16.40
2015,06,27,03,24,16.40
2015,06,27,03,25,16.40
2015,06,27,03,26,16.40
2015,06,27,03,27,16.40
2015,06,27,03,28,16.40
2015,06,27,03,29,16.40
2015,06,27,03,30,16.40
2015,06,27,03,31,16.30
2015,06,27,03,32,16.30
2015,06,27,03,33,16.30
2015,06,27,03,34,16.30
2015,06,27,03,35,16.30
2015,06,27,03,36,16.30
2015,06,27,03,37,16.30
2015,06,27,03,38,16.30
2015,06,27,03,39,16.30
2015,06,27,03,40,16.20
2015,06,27,03,41,16.20
2015,06,27,03,42,16.20
2015,06,27,03,43,16.20
2015,06,27,03,44,16.20
2015,06,27,03,45,16.20
2015,06,27,03,46,16.20
2015,06,27,03,47,16.10
2015,06,27,03,48,16.10
2015,06,27,03,49,16.10
2015,06,27,03,50,16.10
2015,06,27,03,51,16.10
2015,06,27,03,52,16.10
2015,06,27,03,53,16.00
2015,06,27,03,54,16.00
2015,06,27,03,55,16.00
2015,06,27,03,56,16.00
2015,06,27,03,57,16.00
2015,06,27,03,58,15.90
2015,06,27,03,59,15.90
2015,06,27,04,00,15.90
2015,06,27,04,01,15.90
2015,06,27,04,02,15.90
2015,06,27,04,03,15.90
2015,06,27,04,04,15.90
2015,06,27,04,05,15.90
2015,06,27,04,06,15.80
2015,06,27,04,07,15.80
2015,06,27,04,08,15.80
2015,06,27,04,09,15.80
2015,06,27,04,10,15.80
2015,06,27,04,11,15.80
2015,06,27,04,12,15.80
2015,06,27,04,13,15.80
2015,06,27,04,14,15.70
2015,06,27,04,15,15.70
2015,06,27,04,16,15.70
2015,06,27,04,17,15.70
2015,06,27,04,18,15.70
2015,06,27,04,19,15.70
2015,06,27,04,20,15.70
2015,06,27,04,21,15.70
2015,06,27,04,22,15.70
2015,06,27,04,23,15.70
2015,06,27,04,24,15.70
2015,06,27,04,25,15.70
2015,06,27,04,26,15.70
2015,06,27,04,27,15.70
2015,06,27,04,28,15.70
2015,06,27,04,29,15.70
2015,06,27,04,30,15.60
2015,06,27,04,31,15.60
2015,06,27,04,32,15.60
2015,06,27,04,33,15.60
2015,06,27,04,34,15.60
2015,06,27,04,35,15.60
2015,06,27,04,36,15.60
2015,06,27,04,37,15.50
2015,06,27,04,38,15.50
2015,06,27,04,39,15.50
2015,06,27,04,40,15.50
2015,06,27,04,41,15.50
2015,06,27,04,42,15.40
2015,06,27,04,43,15.40
2015,06,27,04,44,15.40
2015,06,27,04,45,15.40
2015,06,27,04,46,15.40
2015,06,27,04,47,15.40
2015,06,27,04,48,15.40
2015,06,27,04,49,15.40
2015,06,27,04,50,15.40
2015,06,27,04,51,15.40
2015,06,27,04,52,15.40
2015,06,27,04,53,15.40
2015,06,27,04,54,15.30
2015,06,27,04,55,15.30
2015,06,27,04,56,15.30
2015,06,27,04,57,15.30
2015,06,27,04,58,15.30
2015,06,27,04,59,15.30
2015,06,27,05,00,15.30
2015,06,27,05,01,15.30
2015,06,27,05,02,15.30
2015,06,27,05,03,15.30
2015,06,27,05,04,15.30
2015,06,27,05,05,15.30
2015,06,27,05,06,15.30
2015,06,27,05,07,15.20
2015,06,27,05,08,15.20
2015,06,27,05,09,15.20
2015,06,27,05,10,15.20
2015,06,27,05,11,15.20
2015,06,27,05,12,15.20
2015,06,27,05,13,15.20
2015,06,27,05,14,15.20
2015,06,27,05,15,15.20
2015,06,27,05,16,15.20
2015,06,27,05,17,15.20
2015,06,27,05,18,15.10
2015,06,27,05,19,15.10
2015,06,27,05,20,15.10
2015,06,27,05,21,15.10
2015,06,27,05,22,15.10
2015,06,27,05,23,15.10
2015,06,27,05,24,15.10
2015,06,27,05,25,15.10
2015,06,27,05,26,15.10
2015,06,27,05,27,15.10
2015,06,27,05,28,15.10
2015,06,27,05,29,15.10
2015,06,27,05,30,15.10
2015,06,27,05,31,15.10
2015,06,27,05,32,15.10
2015,06,27,05,33,15.10
2015,06,27,05,34,15.10
2015,06,27,05,35,15.10
2015,06,27,05,36,15.10
2015,06,27,05,37,15.10
2015,06,27,05,38,15.10
2015,06,27,05,39,15.10
2015,06,27,05,40,15.00
2015,06,27,05,41,15.00
2015,06,27,05,42,15.00
2015,06,27,05,43,15.00
2015,06,27,05,44,15.00
2015,06,27,05,45,15.00
2015,06,27,05,46,15.00
2015,06,27,05,47,15.00
2015,06,27,05,48,15.00
2015,06,27,05,49,15.00
2015,06,27,05,50,15.00
2015,06,27,05,51,15.00
2015,06,27,05,52,15.00
2015,06,27,05,53,15.00
2015,06,27,05,54,15.00
2015,06,27,05,55,15.00
2015,06,27,05,56,15.00
2015,06,27,05,57,15.00
2015,06,27,05,58,15.00
2015,06,27,05,59,15.00
2015,06,27,06,00,15.00
2015,06,27,06,01,15.00
2015,06,27,06,02,15.00
2015,06,27,06,03,15.00
2015,06,27,06,04,15.00
2015,06,27,06,05,15.00
2015,06,27,06,06,15.00
2015,06,27,06,07,15.00
2015,06,27,06,08,15.00
2015,06,27,06,09,15.00
2015,06,27,06,10,15.00
2015,06,27,06,11,15.00
2015,06,27,06,12,15.00
2015,06,27,06,13,15.00
2015,06,27,06,14,15.00
2015,06,27,06,15,15.00
2015,06,27,06,16,15.00
2015,06,27,06,17,15.00
2015,06,27,06,18,15.00
2015,06,27,06,19,15.00
2015,06,27,06,20,15.00
2015,06,27,06,21,15.00
2015,06,27,06,22,15.00
2015,06,27,06,23,15.00
2015,06,27,06,24,15.00
2015,06,27,06,25,15.00
2015,06,27,06,26,15.00
2015,06,27,06,27,15.00
2015,06,27,06,28,15.00
2015,06,27,06,29,15.00
2015,06,27,06,30,15.00
2015,06,27,06,31,15.00
2015,06,27,06,32,15.00
2015,06,27,06,33,15.00
2015,06,27,06,34,15.00
2015,06,27,06,35,15.00
2015,06,27,06,36,15.00
2015,06,27,06,37,15.00
2015,06,27,06,38,15.00
2015,06,27,06,39,15.00
2015,06,27,06,40,15.00
2015,06,27,06,41,15.00
2015,06,27,06,42,15.00
2015,06,27,06,43,15.00
2015,06,27,06,44,15.00
2015,06,27,06,45,15.00
2015,06,27,06,46,15.00
2015,06,27,06,47,15.00
2015,06,27,06,48,15.00
2015,06,27,06,49,15.00
2015,06,27,06,50,15.00
2015,06,27,06,51,15.00
2015,06,27,06,52,15.00
2015,06,27,06,53,15.00
2015,06,27,06,54,15.00
2015,06,27,06,55,15.00
2015,06,27,06,56,15.10
2015,06,27,06,57,15.10
2015,06,27,06,58,15.10
2015,06,27,06,59,15.10
2015,06,27,07,00,15.10
2015,06,27,07,01,15.20
2015,06,27,07,02,15.20
2015,06,27,07,03,15.20
2015,06,27,07,04,15.20
2015,06,27,07,05,15.30
2015,06,27,07,06,15.30
2015,06,27,07,07,15.30
2015,06,27,07,08,15.30
2015,06,27,07,09,15.40
2015,06,27,07,10,15.40
2015,06,27,07,11,15.50
2015,06,27,07,12,15.50
2015,06,27,07,13,15.60
2015,06,27,07,14,15.60
2015,06,27,07,15,15.60
2015,06,27,07,16,15.70
2015,06,27,07,17,15.70
2015,06,27,07,18,15.80
2015,06,27,07,19,15.80
2015,06,27,07,20,15.90
2015,06,27,07,21,16.00
2015,06,27,07,22,16.00
2015,06,27,07,23,16.10
2015,06,27,07,24,16.20
2015,06,27,07,25,16.30
2015,06,27,07,26,16.40
2015,06,27,07,27,16.50
2015,06,27,07,28,16.60
2015,06,27,07,29,16.70
2015,06,27,07,30,16.80
2015,06,27,07,31,16.80
2015,06,27,07,32,16.90
2015,06,27,07,33,17.00
2015,06,27,07,34,17.10
2015,06,27,07,35,17.10
2015,06,27,07,36,17.20
2015,06,27,07,37,17.30
2015,06,27,07,38,17.40
2015,06,27,07,39,17.40
2015,06,27,07,40,17.50
2015,06,27,07,41,17.50
2015,06,27,07,42,17.60
2015,06,27,07,43,17.60
2015,06,27,07,44,17.70
2015,06,27,07,45,17.80
2015,06,27,07,46,17.80
2015,06,27,07,47,17.90
2015,06,27,07,48,18.00
2015,06,27,07,49,18.00
2015,06,27,07,50,18.10
2015,06,27,07,51,18.10
2015,06,27,07,52,18.20
2015,06,27,07,53,18.20
2015,06,27,07,54,18.20
2015,06,27,07,55,18.30
2015,06,27,07,56,18.30
2015,06,27,07,57,18.30
2015,06,27,07,58,18.40
2015,06,27,07,59,18.40
2015,06,27,08,00,18.50
2015,06,27,08,01,18.50
2015,06,27,08,02,18.50
2015,06,27,08,03,18.70
2015,06,27,08,04,18.70
2015,06,27,08,05,18.80
2015,06,27,08,06,18.90
2015,06,27,08,07,19.00
2015,06,27,08,08,19.10
2015,06,27,08,09,19.30
2015,06,27,08,10,19.40
2015,06,27,08,11,19.50
2015,06,27,08,12,19.70
2015,06,27,08,13,19.80
2015,06,27,08,14,20.00
2015,06,27,08,15,20.10
2015,06,27,08,16,20.30
2015,06,27,08,17,20.50
2015,06,27,08,18,20.60
2015,06,27,08,19,20.70
2015,06,27,08,20,20.80
2015,06,27,08,21,20.90
2015,06,27,08,22,21.00
2015,06,27,08,23,21.00
2015,06,27,08,24,21.10
2015,06,27,08,25,21.20
2015,06,27,08,26,21.30
2015,06,27,08,27,21.30
2015,06,27,08,28,21.40
2015,06,27,08,29,21.50
2015,06,27,08,30,21.60
2015,06,27,08,31,21.80
2015,06,27,08,32,21.80
2015,06,27,08,33,21.90
2015,06,27,08,34,22.00
2015,06,27,08,35,22.10
2015,06,27,08,36,22.20
2015,06,27,08,37,22.30
2015,06,27,08,38,22.40
2015,06,27,08,39,22.50
2015,06,27,08,40,22.60
2015,06,27,08,41,22.70
2015,06,27,08,42,22.80
2015,06,27,08,43,22.80
2015,06,27,08,44,22.90
2015,06,27,08,45,22.90
2015,06,27,08,46,22.90
2015,06,27,08,47,22.90
2015,06,27,08,48,22.90
2015,06,27,08,49,22.90
2015,06,27,08,50,23.00
2015,06,27,08,51,23.00
2015,06,27,08,52,23.10
2015,06,27,08,53,23.10
2015,06,27,08,54,23.20
2015,06,27,08,55,23.20
2015,06,27,08,56,23.30
2015,06,27,08,57,23.30
2015,06,27,08,58,23.40
2015,06,27,08,59,23.40
2015,06,27,09,00,23.40
2015,06,27,09,01,23.50
2015,06,27,09,02,23.60
2015,06,27,09,03,23.70
2015,06,27,09,04,23.70
2015,06,27,09,05,23.80
2015,06,27,09,06,23.90
2015,06,27,09,07,23.90
2015,06,27,09,08,24.00
2015,06,27,09,09,24.10
2015,06,27,09,10,24.10
2015,06,27,09,11,24.20
2015,06,27,09,12,24.20
2015,06,27,09,13,24.30
2015,06,27,09,14,24.30
2015,06,27,09,15,24.40
2015,06,27,09,16,24.40
2015,06,27,09,17,24.40
2015,06,27,09,18,24.40
2015,06,27,09,19,24.40
2015,06,27,09,20,24.50
2015,06,27,09,21,24.50
2015,06,27,09,22,24.60
2015,06,27,09,23,24.60
2015,06,27,09,24,24.70
2015,06,27,09,25,24.70
2015,06,27,09,26,24.80
2015,06,27,09,27,24.90
2015,06,27,09,28,24.90
2015,06,27,09,29,25.00
2015,06,27,09,30,25.10
2015,06,27,09,31,25.20
2015,06,27,09,32,25.20
2015,06,27,09,33,25.20
2015,06,27,09,34,25.30
2015,06,27,09,35,25.30
2015,06,27,09,36,25.30
2015,06,27,09,37,25.40
2015,06,27,09,38,25.50
2015,06,27,09,39,25.60
2015,06,27,09,40,25.60
2015,06,27,09,41,25.70
2015,06,27,09,42,25.80
2015,06,27,09,43,25.80
2015,06,27,09,44,25.90
2015,06,27,09,45,25.90
2015,06,27,09,46,25.90
2015,06,27,09,47,25.90
2015,06,27,09,48,25.90
2015,06,27,09,49,25.90
2015,06,27,09,50,25.90
2015,06,27,09,51,25.90
2015,06,27,09,52,25.90
2015,06,27,09,53,26.00
2015,06,27,09,54,26.10
2015,06,27,09,55,26.10
2015,06,27,09,56,26.20
2015,06,27,09,57,26.30
2015,06,27,09,58,26.30
2015,06,27,09,59,26.40
2015,06,27,10,00,26.50
2015,06,27,10,01,26.70
2015,06,27,10,02,26.80
2015,06,27,10,03,26.90
2015,06,27,10,04,27.00
2015,06,27,10,05,27.00
2015,06,27,10,06,27.00
2015,06,27,10,07,27.00
2015,06,27,10,08,27.00
2015,06,27,10,09,27.00
2015,06,27,10,10,27.00
2015,06,27,10,11,27.00
2015,06,27,10,12,27.00
2015,06,27,10,13,27.10
2015,06,27,10,14,27.10
2015,06,27,10,15,27.20
2015,06,27,10,16,27.20
2015,06,27,10,17,27.20
2015,06,27,10,18,27.20
2015,06,27,10,19,27.20
2015,06,27,10,20,27.20
2015,06,27,10,21,27.20
2015,06,27,10,22,27.30
2015,06,27,10,23,27.30
2015,06,27,10,24,27.30
2015,06,27,10,25,27.30
2015,06,27,10,26,27.30
2015,06,27,10,27,27.30
2015,06,27,10,28,27.40
2015,06,27,10,29,27.50
2015,06,27,10,30,27.50
2015,06,27,10,31,27.60
2015,06,27,10,32,27.60
2015,06,27,10,33,27.70
2015,06,27,10,34,27.70
2015,06,27,10,35,27.70
2015,06,27,10,36,27.60
2015,06,27,10,37,27.60
2015,06,27,10,38,27.60
2015,06,27,10,39,27.50
2015,06,27,10,40,27.50
2015,06,27,10,41,27.40
2015,06,27,10,42,27.40
2015,06,27,10,43,27.30
2015,06,27,10,44,27.30
2015,06,27,10,45,27.20
2015,06,27,10,46,27.20
2015,06,27,10,47,27.20
2015,06,27,10,48,27.20
2015,06,27,10,49,27.20
2015,06,27,10,50,27.10
2015,06,27,10,51,27.00
2015,06,27,10,52,26.90
2015,06,27,10,53,26.90
2015,06,27,10,54,26.80
2015,06,27,10,55,26.70
2015,06,27,10,56,26.60
2015,06,27,10,57,26.50
2015,06,27,10,58,26.40
2015,06,27,10,59,26.40
2015,06,27,11,00,26.30
2015,06,27,11,01,26.20
2015,06,27,11,02,26.20
2015,06,27,11,03,26.20
2015,06,27,11,04,26.20
2015,06,27,11,05,26.20
2015,06,27,11,06,26.30
2015,06,27,11,07,26.30
2015,06,27,11,08,26.30
2015,06,27,11,09,26.30
2015,06,27,11,10,26.30
2015,06,27,11,11,26.30
2015,06,27,11,12,26.30
2015,06,27,11,13,26.30
2015,06,27,11,14,26.30
2015,06,27,11,15,26.20
2015,06,27,11,16,26.20
2015,06,27,11,17,26.20
2015,06,27,11,18,26.10
2015,06,27,11,19,26.10
2015,06,27,11,20,26.10
2015,06,27,11,21,26.10
2015,06,27,11,22,26.10
2015,06,27,11,23,26.10
2015,06,27,11,24,26.20
2015,06,27,11,25,26.20
2015,06,27,11,26,26.30
2015,06,27,11,27,26.30
2015,06,27,11,28,26.40
2015,06,27,11,29,26.40
2015,06,27,11,30,26.50
2015,06,27,11,31,26.60
2015,06,27,11,32,26.60
2015,06,27,11,33,26.70
2015,06,27,11,34,26.80
2015,06,27,11,35,26.90
2015,06,27,11,36,27.00
2015,06,27,11,37,27.10
2015,06,27,11,38,27.10
2015,06,27,11,39,27.20
2015,06,27,11,40,27.30
2015,06,27,11,41,27.40
2015,06,27,11,42,27.50
2015,06,27,11,43,27.60
2015,06,27,11,44,27.60
2015,06,27,11,45,27.70
2015,06,27,11,46,27.80
2015,06,27,11,47,27.90
2015,06,27,11,48,27.90
2015,06,27,11,49,28.00
2015,06,27,11,50,28.10
2015,06,27,11,51,28.30
2015,06,27,11,52,28.30
2015,06,27,11,53,28.50
2015,06,27,11,54,28.60
2015,06,27,11,55,28.80
2015,06,27,11,56,28.90
2015,06,27,11,57,29.00
2015,06,27,11,58,29.10
2015,06,27,11,59,29.10
2015,06,27,12,00,29.20
2015,06,27,12,01,29.30
2015,06,27,12,02,29.50
2015,06,27,12,03,29.60
2015,06,27,12,04,29.70
2015,06,27,12,05,29.80
2015,06,27,12,06,29.90
2015,06,27,12,07,29.90
2015,06,27,12,08,30.00
2015,06,27,12,09,30.10
2015,06,27,12,10,30.20
2015,06,27,12,11,30.30
2015,06,27,12,12,30.40
2015,06,27,12,13,30.50
2015,06,27,12,14,30.60
2015,06,27,12,15,30.60
2015,06,27,12,16,30.60
2015,06,27,12,17,30.60
2015,06,27,12,18,30.70
2015,06,27,12,19,30.70
2015,06,27,12,20,30.70
2015,06,27,12,21,30.80
2015,06,27,12,22,30.80
2015,06,27,12,23,30.80
2015,06,27,12,24,30.80
2015,06,27,12,25,30.80
2015,06,27,12,26,30.90
2015,06,27,12,27,30.90
2015,06,27,12,28,30.90
2015,06,27,12,29,31.00
2015,06,27,12,30,31.10
2015,06,27,12,31,31.10
2015,06,27,12,32,31.20
2015,06,27,12,33,31.30
2015,06,27,12,34,31.40
2015,06,27,12,35,31.40
2015,06,27,12,36,31.50
2015,06,27,12,37,31.50
2015,06,27,12,38,31.50
2015,06,27,12,39,31.40
2015,06,27,12,40,31.30
2015,06,27,12,41,31.20
2015,06,27,12,42,31.20
2015,06,27,12,43,31.20
2015,06,27,12,44,31.10
2015,06,27,12,45,31.10
2015,06,27,12,46,31.10
2015,06,27,12,47,31.10
2015,06,27,12,48,31.10
2015,06,27,12,49,31.20
2015,06,27,12,50,31.20
2015,06,27,12,51,31.30
2015,06,27,12,52,31.40
2015,06,27,12,53,31.40
2015,06,27,12,54,31.50
2015,06,27,12,55,31.60
2015,06,27,12,56,31.70
2015,06,27,12,57,31.80
2015,06,27,12,58,31.90
2015,06,27,12,59,32.10
2015,06,27,13,00,32.20
2015,06,27,13,01,32.40
2015,06,27,13,02,32.50
2015,06,27,13,03,32.60
2015,06,27,13,04,32.70
2015,06,27,13,05,32.80
2015,06,27,13,06,32.80
2015,06,27,13,07,33.00
2015,06,27,13,08,33.00
2015,06,27,13,09,33.10
2015,06,27,13,10,33.10
2015,06,27,13,11,33.10
2015,06,27,13,12,33.10
2015,06,27,13,13,33.10
2015,06,27,13,14,33.10
2015,06,27,13,15,33.10
2015,06,27,13,16,33.10
2015,06,27,13,17,33.10
2015,06,27,13,18,33.00
2015,06,27,13,19,33.00
2015,06,27,13,20,32.90
2015,06,27,13,21,32.90
2015,06,27,13,22,33.00
2015,06,27,13,23,33.10
2015,06,27,13,24,33.20
2015,06,27,13,25,33.20
2015,06,27,13,26,33.30
2015,06,27,13,27,33.40
2015,06,27,13,28,33.40
2015,06,27,13,29,33.50
2015,06,27,13,30,33.60
2015,06,27,13,31,33.70
2015,06,27,13,32,33.80
2015,06,27,13,33,33.80
2015,06,27,13,34,33.90
2015,06,27,13,35,33.90
2015,06,27,13,36,33.90
2015,06,27,13,37,33.80
2015,06,27,13,38,33.80
2015,06,27,13,39,33.80
2015,06,27,13,40,33.80
2015,06,27,13,41,33.80
2015,06,27,13,42,33.90
2015,06,27,13,43,33.90
2015,06,27,13,44,33.90
2015,06,27,13,45,33.90
2015,06,27,13,46,33.80
2015,06,27,13,47,33.70
2015,06,27,13,48,33.70
2015,06,27,13,49,33.70
2015,06,27,13,50,33.80
2015,06,27,13,51,33.80
2015,06,27,13,52,33.90
2015,06,27,13,53,33.90
2015,06,27,13,54,33.90
2015,06,27,13,55,33.90
2015,06,27,13,56,33.80
2015,06,27,13,57,33.80
2015,06,27,13,58,33.80
2015,06,27,13,59,33.80
2015,06,27,14,00,33.80
2015,06,27,14,01,33.80
2015,06,27,14,02,33.70
2015,06,27,14,03,33.70
2015,06,27,14,04,33.70
2015,06,27,14,05,33.70
2015,06,27,14,06,33.80
2015,06,27,14,07,33.80
2015,06,27,14,08,33.90
2015,06,27,14,09,34.00
2015,06,27,14,10,34.10
2015,06,27,14,11,34.20
2015,06,27,14,12,34.30
2015,06,27,14,13,34.40
2015,06,27,14,14,34.50
2015,06,27,14,15,34.50
2015,06,27,14,16,34.60
2015,06,27,14,17,34.60
2015,06,27,14,18,34.60
2015,06,27,14,19,34.50
2015,06,27,14,20,34.40
2015,06,27,14,21,34.30
2015,06,27,14,22,34.30
2015,06,27,14,23,34.30
2015,06,27,14,24,34.30
2015,06,27,14,25,34.30
2015,06,27,14,26,34.30
2015,06,27,14,27,34.30
2015,06,27,14,28,34.30
2015,06,27,14,29,34.30
2015,06,27,14,30,34.30
2015,06,27,14,31,34.30
2015,06,27,14,32,34.30
2015,06,27,14,33,34.20
2015,06,27,14,34,34.20
2015,06,27,14,35,34.10
2015,06,27,14,36,34.00
2015,06,27,14,37,34.00
2015,06,27,14,38,34.00
2015,06,27,14,39,34.00
2015,06,27,14,40,34.10
2015,06,27,14,41,34.10
2015,06,27,14,42,34.10
2015,06,27,14,43,34.10
2015,06,27,14,44,34.10
2015,06,27,14,45,34.10
2015,06,27,14,46,34.20
2015,06,27,14,47,34.30
2015,06,27,14,48,34.40
2015,06,27,14,49,34.40
2015,06,27,14,50,34.50
2015,06,27,14,51,34.50
2015,06,27,14,52,34.60
2015,06,27,14,53,34.60
2015,06,27,14,54,34.60
2015,06,27,14,55,34.60
2015,06,27,14,56,34.50
2015,06,27,14,57,34.50
2015,06,27,14,58,34.50
2015,06,27,14,59,34.60
2015,06,27,15,00,34.70
2015,06,27,15,01,34.80
2015,06,27,15,02,34.80
2015,06,27,15,03,34.80
2015,06,27,15,04,34.80
2015,06,27,15,05,34.80
2015,06,27,15,06,34.80
2015,06,27,15,07,34.80
2015,06,27,15,08,34.80
2015,06,27,15,09,34.90
2015,06,27,15,10,35.00
2015,06,27,15,11,35.10
2015,06,27,15,12,35.10
2015,06,27,15,13,35.20
2015,06,27,15,14,35.30
2015,06,27,15,15,35.40
2015,06,27,15,16,35.50
2015,06,27,15,17,35.60
2015,06,27,15,18,35.60
2015,06,27,15,19,35.70
2015,06,27,15,20,35.70
2015,06,27,15,21,35.70
2015,06,27,15,22,35.70
2015,06,27,15,23,35.70
2015,06,27,15,24,35.80
2015,06,27,15,25,35.80
2015,06,27,15,26,35.80
2015,06,27,15,27,35.80
2015,06,27,15,28,35.80
2015,06,27,15,29,35.70
2015,06,27,15,30,35.70
2015,06,27,15,31,35.70
2015,06,27,15,32,35.70
2015,06,27,15,33,35.80
2015,06,27,15,34,35.80
2015,06,27,15,35,35.90
2015,06,27,15,36,35.90
2015,06,27,15,37,35.90
2015,06,27,15,38,35.90
2015,06,27,15,39,35.90
2015,06,27,15,40,35.90
2015,06,27,15,41,35.80
2015,06,27,15,42,35.80
2015,06,27,15,43,35.80
2015,06,27,15,44,35.80
2015,06,27,15,45,35.80
2015,06,27,15,46,35.90
2015,06,27,15,47,35.90
2015,06,27,15,48,35.80
2015,06,27,15,49,35.80
2015,06,27,15,50,35.70
2015,06,27,15,51,35.70
2015,06,27,15,52,35.50
2015,06,27,15,53,35.40
2015,06,27,15,54,35.40
2015,06,27,15,55,35.30
2015,06,27,15,56,35.30
2015,06,27,15,57,35.40
2015,06,27,15,58,35.40
2015,06,27,15,59,35.50
2015,06,27,16,00,35.50
2015,06,27,16,01,35.60
2015,06,27,16,02,35.60
2015,06,27,16,03,35.80
2015,06,27,16,04,35.90
2015,06,27,16,05,36.00
2015,06,27,16,06,36.20
2015,06,27,16,07,36.30
2015,06,27,16,08,36.30
2015,06,27,16,09,36.30
2015,06,27,16,10,36.30
2015,06,27,16,11,36.30
2015,06,27,16,12,36.30
2015,06,27,16,13,36.20
2015,06,27,16,14,36.10
2015,06,27,16,15,36.10
2015,06,27,16,16,36.00
2015,06,27,16,17,36.00
2015,06,27,16,18,35.90
2015,06,27,16,19,35.90
2015,06,27,16,20,35.80
2015,06,27,16,21,35.80
2015,06,27,16,22,35.70
2015,06,27,16,23,35.60
2015,06,27,16,24,35.40
2015,06,27,16,25,35.20
2015,06,27,16,26,35.00
2015,06,27,16,27,34.80
2015,06,27,16,28,34.70
2015,06,27,16,29,34.60
2015,06,27,16,30,34.50
2015,06,27,16,31,34.50
2015,06,27,16,32,34.40
2015,06,27,16,33,34.40
2015,06,27,16,34,34.40
2015,06,27,16,35,34.30
2015,06,27,16,36,34.30
2015,06,27,16,37,34.30
2015,06,27,16,38,34.30
2015,06,27,16,39,34.30
2015,06,27,16,40,34.30
2015,06,27,16,41,34.20
2015,06,27,16,42,34.20
2015,06,27,16,43,34.10
2015,06,27,16,44,34.00
2015,06,27,16,45,34.00
2015,06,27,16,46,33.90
2015,06,27,16,47,33.90
2015,06,27,16,48,33.90
2015,06,27,16,49,33.90
2015,06,27,16,50,33.80
2015,06,27,16,51,33.80
2015,06,27,16,52,33.80
2015,06,27,16,53,33.70
2015,06,27,16,54,33.70
2015,06,27,16,55,33.60
2015,06,27,16,56,33.60
2015,06,27,16,57,33.60
2015,06,27,16,58,33.50
2015,06,27,16,59,33.50
2015,06,27,17,00,33.50
2015,06,27,17,01,33.50
2015,06,27,17,02,33.50
2015,06,27,17,03,33.50
2015,06,27,17,04,33.50
2015,06,27,17,05,33.50
2015,06,27,17,06,33.50
2015,06,27,17,07,33.50
2015,06,27,17,08,33.50
2015,06,27,17,09,33.40
2015,06,27,17,10,33.40
2015,06,27,17,11,33.40
2015,06,27,17,12,33.40
2015,06,27,17,13,33.40
2015,06,27,17,14,33.40
2015,06,27,17,15,33.50
2015,06,27,17,16,33.50
2015,06,27,17,17,33.40
2015,06,27,17,18,33.40
2015,06,27,17,19,33.40